Weather History for Mount Pleasant, MI

Change the Weather History Date:

Friday, January 17, 2014

  Actual Average (KAMN) Record (KAMN)
Temperature  
Mean Temperature 25 °F -  
Max Temperature 30 °F 29 °F 51 °F (1952)
Min Temperature 20 °F 12 °F -18 °F (1982)
Degree Days  
Heating Degree Days 40    
Moisture  
Dew Point 18 °F    
Average Humidity 78    
Maximum Humidity 93    
Minimum Humidity 66    
Precipitation  
Precipitation 0.00 in - - ()
Sea Level Pressure  
Sea Level Pressure 29.71 in    
Wind  
Wind Speed 8 mph (SW)    
Max Wind Speed 16 mph    
Max Gust Speed 22 mph    
Visibility 9 miles    
Events Snow    
Averages and records for this station are not official NWS values.
T = Trace of Precipitation, MM = Missing Value Source: NWS Daily Summary

Daily Weather History Graph

Daily Weather History Graph

Search for Another Location

Airport:

Trip Planner

Search our weather history database for the weather conditions in past years. The results will help you decide how hot, cold, wet, or windy it might be!

Date:

Astronomy

Jan. 17, 2014 Rise Set
Actual Time 8:08 AM EST 5:30 PM EST
Civil Twilight 7:36 AM EST 6:02 PM EST
Nautical Twilight 7:01 AM EST 6:37 PM EST
Astronomical Twilight 6:26 AM EST 7:11 PM EST
Moon 7:20 PM EST (1/17) 8:31 AM EST (1/17)
Length of Visible Light 10h 25m
Length of Day
9h 22m
Full, 98% of the Moon is Illuminated
Jan 17
Full
Jan 24
Last Quarter
Jan 30
New
Feb 6
First Quarter
Feb 14
Full

Hourly Weather History & Observations

Time (EST) Temp. Windchill Dew Point Humidity Pressure Visibility Wind Dir Wind Speed Gust Speed Precip Events Conditions
12:15 AM 27.0 °F 21.6 °F 24.6 °F 91% 29.54 in 3.0 mi SE 4.6 mph - N/A Snow Light Snow
12:35 AM 27.1 °F 20.7 °F 24.8 °F 91% 29.54 in 7.0 mi SE 5.8 mph - N/A   Overcast
12:55 AM 27.3 °F 22.0 °F 24.8 °F 90% 29.53 in 7.0 mi SE 4.6 mph - N/A   Overcast
1:15 AM 27.3 °F 23.4 °F 25.0 °F 91% 29.53 in 2.5 mi SSE 3.5 mph - N/A Snow Light Snow
1:35 AM 27.3 °F - 25.3 °F 92% 29.53 in 1.8 mi Calm Calm - N/A Snow Light Snow
1:55 AM 27.5 °F 23.6 °F 25.5 °F 92% 29.53 in 2.5 mi SE 3.5 mph - N/A Snow Light Snow
2:15 AM 27.5 °F 23.6 °F 25.7 °F 93% 29.53 in 4.0 mi SE 3.5 mph - N/A   Overcast
2:35 AM 27.5 °F - 25.7 °F 93% 29.54 in 4.0 mi Calm Calm - N/A Snow Light Snow
2:55 AM 27.9 °F - 25.7 °F 92% 29.55 in 4.0 mi Calm Calm - N/A   Overcast
3:15 AM 28.2 °F - 26.2 °F 92% 29.55 in 4.0 mi Calm Calm - N/A Snow Light Snow
3:35 AM 29.1 °F 23.0 °F 27.1 °F 92% 29.56 in 5.0 mi SSW 5.8 mph - N/A   Overcast
3:55 AM 29.7 °F 22.0 °F 27.5 °F 92% 29.56 in 5.0 mi SW 8.1 mph - N/A   Overcast
4:15 AM 30.0 °F 20.5 °F 27.5 °F 90% 29.56 in 7.0 mi SW 11.5 mph - N/A   Overcast
4:35 AM 30.0 °F 23.2 °F 27.5 °F 90% 29.56 in 3.0 mi WSW 6.9 mph - N/A Snow Light Snow
4:55 AM 30.0 °F 21.1 °F 27.1 °F 89% 29.58 in 5.0 mi SW 10.4 mph 16.1 mph N/A Snow Light Snow
5:15 AM 28.2 °F 17.7 °F 24.4 °F 86% 29.59 in 5.0 mi WSW 12.7 mph - N/A Snow Light Snow
5:35 AM 27.3 °F 16.6 °F 23.0 °F 84% 29.60 in 7.0 mi WSW 12.7 mph 20.7 mph N/A Snow Light Snow
5:55 AM 26.6 °F 16.2 °F 23.0 °F 86% 29.61 in 3.0 mi SW 11.5 mph - N/A Snow Light Snow
6:15 AM 26.2 °F 13.8 °F 21.7 °F 83% 29.62 in 10.0 mi WSW 16.1 mph 21.9 mph N/A   Overcast
6:34 AM 25.7 °F 14.0 °F 21.7 °F 85% 29.63 in 10.0 mi SW 13.8 mph 19.6 mph N/A   Overcast
6:55 AM 25.5 °F 14.3 °F 21.0 °F 83% 29.64 in 10.0 mi SW 12.7 mph - N/A   Overcast
7:15 AM 24.8 °F 14.6 °F 20.1 °F 82% 29.65 in 10.0 mi WSW 10.4 mph - N/A   Overcast
7:34 AM 24.3 °F 12.2 °F 19.9 °F 84% 29.66 in 10.0 mi SW 13.8 mph 18.4 mph N/A   Overcast
7:55 AM 23.7 °F 13.3 °F 19.2 °F 83% 29.67 in 10.0 mi SW 10.4 mph - N/A   Overcast
8:15 AM 23.4 °F 11.1 °F 18.3 °F 81% 29.68 in 10.0 mi SW 13.8 mph 19.6 mph N/A   Overcast
8:34 AM 23.0 °F 13.9 °F 18.1 °F 82% 29.69 in 10.0 mi WSW 8.1 mph - N/A   Overcast
8:55 AM 22.6 °F 10.1 °F 17.2 °F 80% 29.70 in 10.0 mi WSW 13.8 mph - N/A   Overcast
9:15 AM 22.5 °F 10.5 °F 16.7 °F 79% 29.71 in 10.0 mi WSW 12.7 mph - N/A   Overcast
9:34 AM 22.5 °F 11.7 °F 16.7 °F 79% 29.71 in 10.0 mi WSW 10.4 mph - N/A   Overcast
9:55 AM 23.0 °F 11.1 °F 16.9 °F 77% 29.72 in 10.0 mi WSW 12.7 mph - N/A   Overcast
10:15 AM 23.9 °F 13.5 °F 16.5 °F 73% 29.72 in 10.0 mi West 10.4 mph - N/A   Mostly Cloudy
10:34 AM 23.5 °F 11.3 °F 16.2 °F 73% 29.73 in 10.0 mi SW 13.8 mph 18.4 mph N/A   Mostly Cloudy
10:55 AM 23.9 °F 13.5 °F 16.3 °F 73% 29.73 in 10.0 mi West 10.4 mph - N/A   Scattered Clouds
11:15 AM 24.3 °F 15.4 °F 16.2 °F 71% 29.73 in 10.0 mi WSW 8.1 mph - N/A   Scattered Clouds
11:35 AM 24.6 °F 17.7 °F 16.3 °F 71% 29.74 in 10.0 mi WSW 5.8 mph - N/A   Clear
11:55 AM 24.8 °F 15.3 °F 15.8 °F 69% 29.74 in 10.0 mi SW 9.2 mph - N/A   Clear
12:15 PM 25.0 °F 14.8 °F 15.6 °F 68% 29.74 in 10.0 mi SW 10.4 mph - N/A   Scattered Clouds
12:35 PM 24.8 °F 14.6 °F 15.3 °F 67% 29.74 in 10.0 mi WSW 10.4 mph - N/A   Scattered Clouds
12:55 PM 24.4 °F 14.9 °F 14.9 °F 67% 29.74 in 10.0 mi WSW 9.2 mph - N/A   Clear
1:15 PM 25.3 °F 16.0 °F 15.3 °F 66% 29.74 in 10.0 mi WSW 9.2 mph - N/A   Clear
1:35 PM 25.3 °F 15.3 °F 15.6 °F 67% 29.73 in 10.0 mi SW 10.4 mph - N/A   Clear
1:55 PM 24.8 °F 14.6 °F 15.3 °F 67% 29.74 in 10.0 mi SW 10.4 mph - N/A   Scattered Clouds
2:15 PM 23.9 °F 11.7 °F 15.1 °F 69% 29.74 in 10.0 mi SW 13.8 mph - N/A   Scattered Clouds
2:35 PM 24.6 °F 14.4 °F 15.3 °F 68% 29.75 in 10.0 mi WSW 10.4 mph - N/A   Scattered Clouds
2:55 PM 25.0 °F 14.2 °F 15.4 °F 67% 29.76 in 10.0 mi WSW 11.5 mph - N/A   Mostly Cloudy
3:15 PM 23.9 °F 14.2 °F 15.3 °F 70% 29.76 in 10.0 mi WSW 9.2 mph - N/A   Overcast
3:35 PM 23.5 °F 14.5 °F 14.5 °F 69% 29.77 in 10.0 mi WSW 8.1 mph - N/A   Mostly Cloudy
3:55 PM 23.0 °F 11.7 °F 14.4 °F 70% 29.78 in 10.0 mi WSW 11.5 mph - N/A   Overcast
4:15 PM 22.5 °F 10.5 °F 14.0 °F 70% 29.78 in 10.0 mi West 12.7 mph 17.3 mph N/A   Overcast
4:35 PM 22.5 °F 11.7 °F 14.2 °F 71% 29.79 in 10.0 mi WSW 10.4 mph 16.1 mph N/A   Overcast
4:55 PM 22.1 °F 10.6 °F 14.5 °F 73% 29.80 in 10.0 mi WSW 11.5 mph - N/A   Overcast
5:14 PM 22.1 °F 11.3 °F 14.5 °F 73% 29.81 in 10.0 mi WSW 10.4 mph - N/A   Overcast
5:35 PM 21.4 °F 11.1 °F 14.0 °F 73% 29.81 in 10.0 mi WSW 9.2 mph 16.1 mph N/A   Overcast
5:55 PM 21.2 °F 10.1 °F 14.0 °F 74% 29.82 in 10.0 mi SW 10.4 mph - N/A   Overcast
6:14 PM 21.2 °F 11.7 °F 14.0 °F 74% 29.83 in 10.0 mi WSW 8.1 mph - N/A   Overcast
6:35 PM 21.0 °F 11.4 °F 14.0 °F 74% 29.83 in 10.0 mi WSW 8.1 mph - N/A   Overcast
6:55 PM 21.0 °F 9.9 °F 14.0 °F 74% 29.83 in 10.0 mi SW 10.4 mph - N/A   Overcast
7:14 PM 20.7 °F 8.8 °F 13.5 °F 74% 29.83 in 10.0 mi WSW 11.5 mph 17.3 mph N/A   Overcast
7:35 PM 20.5 °F 12.8 °F 13.5 °F 74% 29.83 in 10.0 mi WSW 5.8 mph - N/A   Overcast
7:55 PM 20.3 °F 9.0 °F 13.5 °F 75% 29.84 in 10.0 mi SW 10.4 mph - N/A   Overcast
8:14 PM 20.3 °F 10.6 °F 13.5 °F 75% 29.84 in 10.0 mi WSW 8.1 mph - N/A   Overcast
8:35 PM 20.3 °F 11.5 °F 13.6 °F 75% 29.85 in 10.0 mi WSW 6.9 mph 10.4 mph N/A   Overcast
8:55 PM 20.3 °F 9.8 °F 13.8 °F 76% 29.85 in 10.0 mi WSW 9.2 mph - N/A   Overcast
9:14 PM 20.5 °F 11.7 °F 14.0 °F 76% 29.85 in 10.0 mi WSW 6.9 mph - N/A   Overcast
9:35 PM 20.5 °F 10.0 °F 14.0 °F 76% 29.85 in 10.0 mi WSW 9.2 mph - N/A   Overcast
9:55 PM 20.3 °F 9.0 °F 13.5 °F 75% 29.85 in 10.0 mi WSW 10.4 mph - N/A   Overcast
10:14 PM 20.3 °F 11.5 °F 13.5 °F 75% 29.85 in 10.0 mi SW 6.9 mph - N/A   Overcast
10:35 PM 20.5 °F 12.8 °F 13.6 °F 75% 29.85 in 10.0 mi SW 5.8 mph - N/A   Overcast
10:55 PM 20.3 °F 13.8 °F 13.8 °F 76% 29.85 in 10.0 mi SW 4.6 mph - N/A   Overcast
11:14 PM 20.7 °F 14.2 °F 14.0 °F 75% 29.84 in 10.0 mi SSW 4.6 mph - N/A Snow Light Snow
11:35 PM 20.5 °F 14.0 °F 14.0 °F 76% 29.83 in 10.0 mi SSW 4.6 mph - N/A   Overcast
11:55 PM 20.7 °F 14.2 °F 14.0 °F 75% 29.83 in 10.0 mi SSW 4.6 mph - N/A Snow Light Snow